Вернуться в каталог

STARLINK-30392

АктивенСвязьVLEO
NORAD 57855·PAYLOAD·🇺🇸 United States

Запущен Sep 12, 2023 с Vandenberg Space Force Base

Loading…

Ближайшие Пролёты (ближайшие 24 часа)

TLE

СвежийSource: CelesTrak SupGP

Эпоха: Sep 15, 2026, 02:10 UTC

1 57855C 23141R   26258.09076389  .00039333  00000+0  11624-2 0  2580
2 57855  53.1563 122.8081 0001234  87.5581  79.2063 15.34364278    12

Отслеживайте STARLINK-30392 в реальном времени с AllMySat

Download on the App Store